This demonstration page uses our WeatherBlox Daily Observations layout. Learn more.

Left ArrowRight Arrow

34.16533, -84.80231

Hourly Observations for May 29, 2017

Temp ( °F °C ) Dew Point ( °F °C ) Humidity (%) Winds ( mph kmh ) Pressure ( in mb ) Visibility ( mi km ) Precip ( " mm )
12:53 am 00:53 Clear 65 18.3 65 18.3 100 100 Calm 29.92 1013 10 16 0.00 0.00
1:53 am 01:53 Clear 66 18.9 66 18.9 100 100 Calm 29.92 1013 10 16 0.00 0.00
2:53 am 02:53 Clear 67 19.4 66 18.9 97 97 Calm 29.95 1014 10 16 0.00 0.00
3:53 am 03:53 Mostly Cloudy 67 19.4 67 19.4 100 100 Calm 29.96 1014 10 16 0.00 0.00
4:53 am 04:53 Cloudy 67 19.4 67 19.4 100 100 Calm 29.96 1015 10 16 0.00 0.00
5:53 am 05:53 Cloudy 67 19.4 67 19.4 100 100 Calm 29.95 1014 10 16 0.00 0.00
6:53 am 06:53 Mostly Sunny 65 18.3 65 18.3 100 100 S 5 7 29.96 1014 10 16 0.00 0.00
7:53 am 07:53 Sunny 69 20.6 68 20 96 96 Calm 29.97 1015 10 16 0.00 0.00
8:53 am 08:53 Sunny 72 22.2 69 20.6 91 91 VRB 3 6 29.98 1015 10 16 0.00 0.00
9:53 am 09:53 Mostly Sunny 75 23.9 68 20 79 79 Calm 30.00 1016 10 16 0.00 0.00
10:38 am 10:38 Mostly Cloudy 76 24.4 68 20 77 77 Calm 30.03 1017 10 16 0.00 0.00
10:45 am 10:45 Partly Cloudy 77 25 68 20 74 74 Calm 30.00 1016 10 16 0.00 0.00
10:53 am 10:53 Partly Cloudy 76 24.4 67 19.4 74 74 Calm 30.02 1017 10 16 0.00 0.00
11:53 am 11:53 Sunny 77 25 68 20 74 74 Calm 30.03 1017 10 16 0.00 0.00
12:53 pm 12:53 Sunny 79 26.1 69 20.6 72 72 N 5 7 30.03 1017 10 16 0.00 0.00
1:53 pm 13:53 Mostly Cloudy 78 25.6 69 20.6 74 74 VRB 3 6 30.02 1017 10 16 0.00 0.00
2:03 pm 14:03 Cloudy 77 25 69 20.6 77 77 N 7 11 30.00 1016 10 16 0.00 0.00
2:14 pm 14:14 Mostly Cloudy 80 26.7 70 21.1 71 71 N 8 13 30.00 1016 10 16 0.00 0.00
2:53 pm 14:53 Mostly Cloudy 78 25.6 69 20.6 74 74 Calm 30.01 1016 10 16 0.00 0.00
3:53 pm 15:53 Cloudy 77 25 69 20.6 77 77 VRB 3 6 30.01 1016 10 16 0.00 0.00
4:20 pm 16:20 Cloudy with Nearby Thunderstorms 72 22.2 72 22.2 100 100 S 3 6 30.03 1017 3 4 0.05 1.27
4:32 pm 16:32 Cloudy with Nearby Thunderstorms 72 22.2 72 22.2 100 100 S 12 19 30.03 1017 3 5 0.09 2.29
4:53 pm 16:53 Cloudy with Nearby Thunderstorms 70 21.1 70 21.1 100 100 ESE 6 9 29.97 1015 7 11 0.12 3.05
5:08 pm 17:08 Mostly Cloudy 70 21.1 70 21.1 100 100 E 5 7 30.00 1016 10 16 0.00 0.03
5:53 pm 17:53 Mostly Sunny 74 23.3 71 21.7 91 91 VRB 3 6 29.98 1015 10 16 0.00 0.03
6:53 pm 18:53 Sunny 73 22.8 70 21.1 90 90 Calm 29.98 1015 10 16 0.00 0.00
7:53 pm 19:53 Sunny 72 22.2 72 22.2 100 100 SSE 3 6 29.98 1015 10 16 0.00 0.00
8:53 pm 20:53 Mostly Cloudy 72 22.2 71 21.7 97 97 Calm 30.00 1016 10 16 0.00 0.00
9:53 pm 21:53 Cloudy with Nearby Thunderstorms 71 21.7 67 19.4 87 87 Calm 30.02 1017 10 16 0.00 0.00
10:12 pm 22:12 Cloudy with Nearby Thunderstorms 68 20 68 20 100 100 Calm 30.06 1018 2 3 0.17 4.32
10:17 pm 22:17 Cloudy with Strong Thunderstorms 67 19.4 67 19.4 100 100 S 7 11 30.06 1018 1 2 0.26 6.60
10:26 pm 22:26 Cloudy with Thunderstorms 66 18.9 66 18.9 100 100 Calm 30.06 1018 3 5 0.29 7.37
10:36 pm 22:36 Cloudy with Light Rain 67 19.4 67 19.4 100 100 VRB 3 6 30.06 1018 5 8 0.30 7.62
10:53 pm 22:53 Cloudy with Light Rain 67 19.4 67 19.4 100 100 NNE 5 7 30.05 1018 10 16 0.31 7.87
11:05 pm 23:05 Cloudy 67 19.4 67 19.4 100 100 Calm 30.06 1018 10 16 0.00 0.03
11:29 pm 23:29 Cloudy 67 19.4 67 19.4 100 100 Calm 30.06 1018 10 16 0.00 0.03
11:53 pm 23:53 Cloudy 67 19.4 67 19.4 100 100 Calm 30.05 1018 9 14 0.01 0.25

Powered by AerisWeather